Location: Brahman Valley
(40.6513°N, 111.8855°W)
Time: 21:05:14
(UTC+00:00)

Vanguard 2 - Pass Details

Date: 14 May 2021
Orbit: 552 x 2937 km, 32.9° (Epoch: 14 June)

Event Time Altitude Azimuth Distance (km) Brightness Sun altitude
Rises 10:10:36 0° 188° (S) 3,732 - -19.1°
Exits shadow 10:13:36 - 170° (S) 3,246 10.4 -18.7°
Reaches altitude 10° 10:14:22 10° 165° (SSE) 3,177 10.4 -18.6°
Maximum altitude 10:18:36 15° 133° (SE) 3,241 10.7 -18.1°
Drops below altitude 10° 10:23:51 10° 103° (ESE) 4,150 11.7 -17.4°
Sets 10:30:07 0° 84° (E) 5,711 12.8 -16.5°
